[[{"header":{"parameterUnit":"m.s-1","parameterCategory":1,"la1":30.2991,"la2":30.254,"lo1":-89.0895,"lo2":-89.0444,"dy":0.0017,"dx":0.0017,"nx":28,"ny":28,"refTime":"2024-12-16T03:00:00:Z","depth":0,"parameterNumber":2,"parameterNumberName":"U-component_of_WINDS"},"data":[0,0,0,0,0,0,0,0,0,0,0,0,0,0,0,0,0,0,0,0,0,0,0,0,0,0,0,0,0,0,0,0,0,0,0,0,0,0,0,0,0,0,0,0,0,0,0,0,0,0,0,0,0,0,0,0,0,0,-1.6531,-1.6531,0,-1.6483,-1.6483,-1.6482,-1.6385,-1.6383,-1.6382,-1.638,-1.6334,-1.6335,-1.6335,0,0,0,0,0,0,0,0,0,0,0,0,0,-1.6543,-1.6543,-1.6531,-1.653,-1.653,-1.6483,-1.6483,-1.6482,-1.6386,-1.6383,-1.6381,-1.6379,-1.6334,-1.6335,-1.6335,0,0,0,0,0,0,0,0,0,0,0,0,0,-1.6521,-1.6543,-1.6531,-1.6476,-1.6471,-1.6483,-1.6483,-1.6482,-1.6386,-1.6383,-1.638,-1.6378,-1.6334,-1.6334,-1.6335,-1.6399,0,0,-1.6338,-1.6338,0,0,0,0,0,0,0,0,-1.6522,-1.652,-1.6485,-1.648,-1.6474,-1.6437,-1.647,-1.6454,-1.6387,-1.6418,-1.638,-1.6376,-1.6371,-1.6369,-1.6366,-1.6396,-1.6394,-1.6338,-1.6339,-1.6339,-1.6339,0,0,0,0,0,0,0,-1.6524,-1.6522,-1.6512,-1.6484,-1.6478,-1.6455,-1.6449,-1.6466,-1.6412,-1.6415,-1.6408,-1.6404,-1.6367,-1.6365,-1.6364,-1.6394,-1.6338,-1.6339,-1.6339,-1.634,-1.6475,-1.6478,0,0,0,0,0,0,-1.6533,-1.6524,-1.6514,-1.6511,-1.6491,-1.6457,-1.645,-1.6452,-1.6411,-1.6402,-1.6406,-1.6399,-1.6365,-1.6363,-1.6362,-1.6435,-1.6339,-1.634,-1.634,-1.6472,-1.6476,-1.6479,0,0,0,0,0,0,-1.6534,-1.6533,-1.6516,-1.6515,-1.6511,-1.646,-1.6463,-1.6453,-1.645,-1.6404,-1.6394,-1.6414,-1.6363,-1.6361,-1.639,-1.6432,-1.634,-1.6341,-1.6469,-1.6473,-1.6478,-1.658,0,0,0,0,0,0,-1.6534,-1.6534,-1.6556,-1.6517,-1.6512,-1.6544,-1.6465,-1.6454,-1.6452,-1.6442,-1.6409,-1.6401,-1.6361,-1.639,-1.6391,-1.6431,-1.6342,-1.6465,-1.6471,-1.6476,-1.6573,-1.6587,-1.66,0,0,0,0,0,-1.6535,-1.6587,-1.6558,-1.6557,-1.6539,-1.6546,-1.6544,-1.6496,-1.6455,-1.6479,-1.6449,-1.6402,-1.6427,-1.6393,-1.6394,-1.6435,-1.6462,-1.6469,-1.6476,-1.6566,-1.6584,-1.66,0,0,0,0,0,0,-1.6634,-1.6581,-1.6548,-1.6589,-1.6573,-1.653,-1.6557,-1.6516,-1.6512,-1.6503,-1.6445,-1.6438,-1.6476,-1.6458,-1.6422,-1.6495,-1.6437,-1.6444,-1.6505,-1.6522,-1.6536,-1.654,-1.6342,0,0,0,0,0,-1.6661,-1.667,-1.6623,-1.6664,-1.6658,-1.6609,-1.6611,-1.6575,-1.6557,-1.655,-1.6522,-1.6507,-1.6511,-1.6516,-1.6517,-1.6569,-1.6562,-1.6598,-1.6612,-1.6623,-1.6631,-1.6659,-1.6675,-1.6502,-1.6502,-1.6502,0,0,-1.6716,-1.6688,-1.6698,-1.6683,-1.6667,-1.6679,-1.6604,-1.662,-1.6629,-1.6552,-1.6578,-1.6558,-1.6537,-1.6579,-1.6596,-1.6565,-1.6677,-1.6632,-1.6642,-1.6643,-1.6668,-1.6684,-1.6699,-1.6507,-1.6506,-1.6505,0,0,-1.6823,-1.6802,-1.6834,-1.6819,-1.6794,-1.6762,-1.677,-1.6733,-1.6717,-1.6742,-1.6685,-1.6695,-1.6704,-1.6692,-1.6687,-1.679,-1.6747,-1.6792,-1.6865,-1.6893,-1.6906,-1.6918,-1.6956,-1.6971,-1.68,-1.68,-1.68,0,-1.6895,-1.691,-1.6856,-1.6876,-1.6872,-1.6802,-1.6835,-1.6823,-1.6801,-1.6801,-1.6767,-1.6777,-1.6758,-1.6796,-1.6822,-1.682,-1.6828,-1.6796,-1.6908,-1.692,-1.693,-1.6966,-1.698,-1.6806,-1.6805,-1.6805,-1.6804,0,-1.7,-1.7012,-1.7041,-1.702,-1.702,-1.7046,-1.6998,-1.7004,-1.6969,-1.694,-1.6968,-1.6943,-1.6938,-1.6945,-1.691,-1.6979,-1.6961,-1.6919,-1.6859,-1.6953,-1.6986,-1.6999,-1.6814,-1.6812,-1.681,-1.6809,0,0,-1.7168,-1.7118,-1.713,-1.712,-1.7089,-1.7097,-1.7121,-1.7116,-1.7123,-1.7111,-1.713,-1.714,-1.71,-1.7095,-1.7059,-1.7083,-1.7169,-1.7038,-1.7037,-1.7064,-1.7245,-1.7278,-1.7294,-1.714,-1.7142,-1.7144,-1.7247,0,-1.7269,-1.7306,-1.7259,-1.7307,-1.7318,-1.7252,-1.7273,-1.7257,-1.7231,-1.7238,-1.7209,-1.7218,-1.7165,-1.7161,-1.7182,-1.7154,-1.7205,-1.7146,-1.7159,-1.716,-1.7168,-1.7311,-1.7346,-1.7444,-1.7259,-1.7261,-1.7263,0,-1.7391,-1.7384,-1.7433,-1.7399,-1.7402,-1.7422,-1.7414,-1.742,-1.7401,-1.7381,-1.7376,-1.7332,-1.7355,-1.7297,-1.7328,-1.7289,-1.7292,-1.7279,-1.7282,-1.7282,-1.7218,-1.7317,-1.7474,-1.7489,-1.7282,-1.7281,-1.7279,0,-1.7511,-1.7513,-1.7543,-1.7537,-1.7498,-1.7513,-1.7498,-1.7476,-1.7476,-1.747,-1.747,-1.7467,-1.7466,-1.7465,-1.7423,-1.7384,-1.746,-1.7398,-1.7445,-1.7447,-1.7465,-1.7465,-1.7626,-1.7465,-1.7465,-1.7465,-1.7465,0,-1.7629,-1.7662,-1.7596,-1.7615,-1.765,-1.7596,-1.7633,-1.7611,-1.7592,-1.7607,-1.755,-1.7565,-1.7507,-1.7516,-1.7484,-1.7516,-1.7515,-1.7501,-1.7492,-1.7507,-1.7509,-1.7508,-1.7501,-1.7469,-1.7468,-1.7467,-1.7466,0,-1.7769,-1.7726,-1.7754,-1.7715,-1.7706,-1.7734,-1.7701,-1.7717,-1.7688,-1.7707,-1.7708,-1.7663,-1.7671,-1.7629,-1.7629,-1.7607,-1.7656,-1.7635,-1.7663,-1.7657,-1.7707,-1.7704,-1.7875,-1.7896,-1.7721,-1.7723,-1.7724,0,-1.7848,-1.7871,-1.7834,-1.7839,-1.7827,-1.7835,-1.7835,-1.7784,-1.7786,-1.7767,-1.7786,-1.7789,-1.7789,-1.7806,-1.7774,-1.7774,-1.7754,-1.7814,-1.7753,-1.7768,-1.7756,-1.7756,-1.7759,-1.7827,-1.7829,-1.7831,-1.7832,0,-1.7992,-1.797,-1.7972,-1.7967,-1.7968,-1.7962,-1.7952,-1.796,-1.7904,-1.791,-1.7917,-1.7917,-1.7917,-1.7922,-1.7916,-1.7902,-1.7859,-1.7851,-1.7863,-1.7878,-1.7894,-1.7888,-1.7698,-1.7848,-1.7846,-1.7845,-1.7844,-1.7844,-1.8105,-1.8123,-1.81,-1.8105,-1.8091,-1.8084,-1.8097,-1.807,-1.8074,-1.807,-1.804,-1.8053,-1.8034,-1.8022,-1.8012,-1.8023,-1.7994,-1.8011,-1.8015,-1.802,-1.803,-1.7891,-1.8021,-1.8021,-1.802,-1.802,-1.802,0,-1.8248,-1.823,-1.8234,-1.8222,-1.8226,-1.8183,-1.817,-1.8177,-1.8189,-1.8174,-1.8175,-1.8185,-1.8189,-1.8157,-1.8158,-1.8173,-1.8153,-1.8175,-1.8174,-1.8172,-1.8054,-1.8045,-1.8191,-1.8191,-1.8191,-1.8191,-1.8191,-1.8191,-1.8322,-1.8352,-1.8327,-1.835,-1.8332,-1.8344,-1.8341,-1.8334,-1.8322,-1.8335,-1.8338,-1.8317,-1.8296,-1.8295,-1.8298,-1.8288,-1.8292,-1.8321,-1.8305,-1.8196,-1.818,-1.8164,-1.8155,-1.8322,-1.8322,-1.8422,-1.8423,-1.8424]},{"header":{"parameterUnit":"m.s-1","parameterCategory":1,"la1":30.2991,"la2":30.254,"lo1":-89.0895,"lo2":-89.0444,"dy":0.0017,"dx":0.0017,"nx":28,"ny":28,"refTime":"2024-12-16T03:00:00:Z","depth":0,"parameterNumber":3,"parameterNumberName":"V-component_of_WINDS"},"data":[0,0,0,0,0,0,0,0,0,0,0,0,0,0,0,0,0,0,0,0,0,0,0,0,0,0,0,0,0,0,0,0,0,0,0,0,0,0,0,0,0,0,0,0,0,0,0,0,0,0,0,0,0,0,0,0,0,0,-1.5863,-1.5864,0,-1.5923,-1.5923,-1.5924,-1.592,-1.5919,-1.5918,-1.5918,-1.5977,-1.598,-1.5982,0,0,0,0,0,0,0,0,0,0,0,0,0,-1.5746,-1.5748,-1.5863,-1.5864,-1.5865,-1.5922,-1.5923,-1.5924,-1.592,-1.5919,-1.5918,-1.5917,-1.5977,-1.5979,-1.5982,0,0,0,0,0,0,0,0,0,0,0,0,0,-1.58,-1.5749,-1.5863,-1.587,-1.5871,-1.5922,-1.5923,-1.5924,-1.592,-1.5919,-1.5918,-1.5917,-1.5976,-1.5979,-1.5983,-1.6031,0,0,-1.5994,-1.5995,0,0,0,0,0,0,0,0,-1.5797,-1.5805,-1.5868,-1.587,-1.5871,-1.5913,-1.5904,-1.596,-1.5921,-1.5902,-1.5917,-1.5916,-1.5957,-1.5962,-1.5976,-1.6034,-1.6036,-1.5994,-1.5996,-1.5998,-1.5999,0,0,0,0,0,0,0,-1.5793,-1.5802,-1.5887,-1.5869,-1.5871,-1.587,-1.5876,-1.5914,-1.5936,-1.5903,-1.5903,-1.591,-1.5957,-1.5972,-1.5977,-1.6037,-1.5994,-1.5997,-1.5999,-1.6001,-1.6137,-1.6139,0,0,0,0,0,0,-1.5788,-1.5799,-1.5885,-1.5889,-1.583,-1.5873,-1.588,-1.5901,-1.5935,-1.5939,-1.5911,-1.591,-1.5967,-1.5973,-1.5979,-1.6038,-1.5998,-1.6001,-1.6003,-1.6136,-1.6138,-1.6139,0,0,0,0,0,0,-1.5786,-1.5796,-1.5883,-1.5844,-1.5855,-1.5876,-1.59,-1.5902,-1.5917,-1.5941,-1.5945,-1.5923,-1.5966,-1.5974,-1.6018,-1.604,-1.6003,-1.6006,-1.6134,-1.6137,-1.6139,-1.6156,0,0,0,0,0,0,-1.5782,-1.5795,-1.5814,-1.5844,-1.5857,-1.5921,-1.5901,-1.5905,-1.5924,-1.5922,-1.5953,-1.5957,-1.5966,-1.6013,-1.6022,-1.6045,-1.6009,-1.6132,-1.6135,-1.6138,-1.6154,-1.6159,-1.6163,0,0,0,0,0,-1.5778,-1.5816,-1.5815,-1.5825,-1.5881,-1.5922,-1.5929,-1.5939,-1.5926,-1.5945,-1.596,-1.5956,-1.6036,-1.6017,-1.6027,-1.6052,-1.6131,-1.6134,-1.6138,-1.6152,-1.6158,-1.6163,0,0,0,0,0,0,-1.5788,-1.5821,-1.5819,-1.5868,-1.5893,-1.5921,-1.5946,-1.5945,-1.5973,-1.597,-1.598,-1.5987,-1.6032,-1.6046,-1.6024,-1.61,-1.6082,-1.6087,-1.6089,-1.6095,-1.61,-1.6096,-1.6012,0,0,0,0,0,-1.5796,-1.5827,-1.5854,-1.5894,-1.5907,-1.5924,-1.5942,-1.5947,-1.5973,-1.5983,-1.6001,-1.6026,-1.6056,-1.6077,-1.6106,-1.6156,-1.6162,-1.6177,-1.6182,-1.6186,-1.619,-1.6218,-1.6225,-1.615,-1.615,-1.615,0,0,-1.5813,-1.5834,-1.5853,-1.5897,-1.5916,-1.5948,-1.5933,-1.5967,-1.5991,-1.5988,-1.6031,-1.6045,-1.6073,-1.612,-1.6142,-1.6133,-1.6212,-1.619,-1.6193,-1.6195,-1.6222,-1.6229,-1.6235,-1.6153,-1.6152,-1.6152,0,0,-1.5859,-1.5879,-1.5915,-1.5935,-1.5964,-1.5975,-1.5984,-1.6013,-1.6023,-1.6066,-1.6064,-1.6092,-1.6145,-1.6165,-1.6182,-1.6236,-1.6233,-1.6245,-1.6269,-1.6296,-1.6302,-1.6307,-1.6327,-1.6333,-1.625,-1.625,-1.625,0,-1.5876,-1.5925,-1.5934,-1.5968,-1.5988,-1.5987,-1.6023,-1.6042,-1.6079,-1.6092,-1.6082,-1.6148,-1.6167,-1.6219,-1.6232,-1.6246,-1.6256,-1.6242,-1.63,-1.6306,-1.6311,-1.6329,-1.6337,-1.6251,-1.6251,-1.6251,-1.625,0,-1.5944,-1.5977,-1.6003,-1.604,-1.6062,-1.6097,-1.6111,-1.6132,-1.6135,-1.6147,-1.6191,-1.6213,-1.6248,-1.626,-1.6263,-1.6312,-1.6306,-1.6298,-1.628,-1.6319,-1.6337,-1.6344,-1.6253,-1.6252,-1.6252,-1.6252,0,0,-1.5999,-1.604,-1.605,-1.6066,-1.6098,-1.6124,-1.6159,-1.6193,-1.6211,-1.6236,-1.6266,-1.631,-1.6303,-1.6323,-1.6328,-1.6351,-1.6393,-1.634,-1.6341,-1.635,-1.6448,-1.6454,-1.6463,-1.6391,-1.6392,-1.6393,-1.6446,0,-1.605,-1.6113,-1.6122,-1.6177,-1.6208,-1.6207,-1.6238,-1.6261,-1.6273,-1.63,-1.6314,-1.6345,-1.6333,-1.6345,-1.6368,-1.6383,-1.6413,-1.6379,-1.6419,-1.642,-1.6412,-1.6472,-1.6479,-1.6527,-1.6453,-1.6454,-1.6455,0,-1.6117,-1.6145,-1.6203,-1.6231,-1.6245,-1.6272,-1.6303,-1.633,-1.6356,-1.6363,-1.6384,-1.6387,-1.6423,-1.6403,-1.6453,-1.643,-1.6446,-1.6456,-1.6458,-1.6463,-1.644,-1.6478,-1.6543,-1.655,-1.6466,-1.6465,-1.6464,0,-1.6152,-1.6204,-1.6246,-1.626,-1.6293,-1.6313,-1.6327,-1.6352,-1.6371,-1.6399,-1.6411,-1.6442,-1.6459,-1.6483,-1.6494,-1.6478,-1.6543,-1.6524,-1.655,-1.655,-1.6564,-1.6563,-1.6633,-1.6574,-1.6574,-1.6574,-1.6574,0,-1.6207,-1.6243,-1.6262,-1.6288,-1.6328,-1.6337,-1.6377,-1.6391,-1.6412,-1.6441,-1.6442,-1.6468,-1.648,-1.6508,-1.6517,-1.6557,-1.6564,-1.6571,-1.6573,-1.6571,-1.6571,-1.6583,-1.658,-1.6576,-1.6575,-1.6575,-1.6575,0,-1.6253,-1.6267,-1.6313,-1.6341,-1.6349,-1.6377,-1.6401,-1.6425,-1.6437,-1.6473,-1.6482,-1.65,-1.6533,-1.6546,-1.6587,-1.6592,-1.6639,-1.6638,-1.663,-1.6631,-1.6656,-1.6654,-1.6737,-1.6748,-1.6681,-1.6682,-1.6683,0,-1.6288,-1.6316,-1.6347,-1.6366,-1.6382,-1.6412,-1.6432,-1.6443,-1.6463,-1.6495,-1.6516,-1.6549,-1.6576,-1.6629,-1.6646,-1.6677,-1.6677,-1.6704,-1.6681,-1.6679,-1.6678,-1.6676,-1.6679,-1.6708,-1.6709,-1.6709,-1.671,0,-1.6349,-1.6354,-1.6383,-1.6415,-1.6438,-1.6464,-1.6488,-1.6503,-1.6517,-1.654,-1.6575,-1.6596,-1.6637,-1.667,-1.6702,-1.6717,-1.6716,-1.6716,-1.6724,-1.6723,-1.6718,-1.6722,-1.6642,-1.6715,-1.6714,-1.6714,-1.6713,-1.6713,-1.6391,-1.6415,-1.6441,-1.6473,-1.6493,-1.6515,-1.654,-1.6555,-1.6584,-1.6618,-1.6622,-1.6659,-1.6684,-1.6726,-1.6743,-1.6771,-1.6764,-1.6775,-1.6778,-1.6781,-1.6783,-1.6713,-1.6777,-1.6777,-1.6777,-1.6777,-1.6777,0,-1.6452,-1.6468,-1.6497,-1.6532,-1.6557,-1.6554,-1.658,-1.6602,-1.6634,-1.6657,-1.6684,-1.6723,-1.6755,-1.6774,-1.6806,-1.6826,-1.6826,-1.6834,-1.6833,-1.6836,-1.6787,-1.6778,-1.6833,-1.6833,-1.6833,-1.6833,-1.6833,-1.6833,-1.6486,-1.6528,-1.6536,-1.6587,-1.6603,-1.664,-1.6655,-1.6676,-1.6695,-1.6739,-1.6765,-1.6777,-1.6799,-1.6833,-1.6862,-1.6866,-1.6878,-1.6887,-1.6891,-1.6845,-1.684,-1.6834,-1.6825,-1.6889,-1.6889,-1.6938,-1.6938,-1.6938]}]]